Regional Weather Roundup
Issued by NWS

Home | Current Version | Previous Version | Graphics & Text | Print | Product List | Glossary On
Versions: 1 2 3 4 5 6 7 8 9 10 11 12 13 14 15 16 17 18 19 20 21 22 23 24 25 26 27 28 29
000
ASUS45 KBOU 261007
RWRCO

WEATHER ROUNDUP FOR COLORADO
NATIONAL WEATHER SERVICE DENVER/BOULDER CO
400 AM MDT WED APR 26 2017

NOTE: "FAIR" INDICATES FEW OR NO CLOUDS BELOW 12000 FEET WITH NO
SIGNIFICANT WEATHER AND/OR OBSTRUCTIONS TO VISIBILITY.

COZ001>005-013-030-031-261100-
...NORTHWEST COLORADO...

CITY           SKY/WX    TMP DP  RH WIND       PRES   REMARKS
CRAIG          CLOUDY    30  25  81 CALM      29.91F
HAYDEN         CLOUDY    30  23  74 W3        29.91S
MEEKER         CLOUDY    35  33  92 CALM      29.92S
MOUNT WERNER   NOT AVBL
STEAMBOAT SPGS CLOUDY    29  28  95 CALM      29.91R
WALDEN         NOT AVBL
$$

COZ006>008-011-261100-
...WEST CENTRAL VALLEYS...

CITY           SKY/WX    TMP DP  RH WIND       PRES   REMARKS
GRAND JUNCTION FAIR      37  36  96 CALM      29.92R
MONTROSE       CLOUDY    38  33  82 NE5       29.94S
EAGLE          FAIR      29  27  92 E3        29.94R
RIFLE          FAIR      33  30  88 S6        29.93R WCI  28
DELTA          FAIR      36  33  88 N5        29.93R
NUCLA          FAIR      34  30  86 E6        29.96R WCI  29
$$

COZ017>023-064>068-261100-
...SOUTHWEST COLORADO...

CITY           SKY/WX    TMP DP  RH WIND       PRES   REMARKS
DURANGO        FAIR      29  18  63 E7        29.86R WCI  22
CORTEZ         FAIR      31  26  82 E5        29.91R WCI  26
PAGOSA SPRINGS FAIR      28  25  88 CALM      29.88R
TELLURIDE      CLOUDY    29  26  91 W8        29.95R WCI  21
WOLF CREEK PAS FAIR      18  12  79 NW10G17   29.93S WCI   6
$$

COZ009-010-012-014-032>034-037-058>063-261100-
...CENTRAL COLORADO...

CITY           SKY/WX    TMP DP  RH WIND       PRES   REMARKS
ASPEN          CLOUDY    32  28  85 N9        29.90R WCI  24
BUENA VISTA    FAIR      32  20  62 NW9       29.83R WCI  24
COPPER MTN     FLURRIES  19  14  79 MISG      29.88R
BERTHOUD PASS  CLOUDY    10   1  67 NW37      29.79S WCI -14
COTTONWOOD PAS FAIR      32  16  51 W15G28    29.84R WCI  22
GUNNISON       FAIR      31  28  89 W10       29.90R WCI  22
KREMMLING      CLOUDY    37  28  70 NW6       29.90R
LEADVILLE      CLOUDY    22  17  81 W8        29.85R WCI  12
MONARCH PASS   CLOUDY    19  16  86 MISG      29.96R
SALIDA         FAIR      35  24  65 N6        29.90R WCI  29
SUNLIGHT       FOG      N/A N/A N/A W8        29.97S VSB 3/4
WILKERSON PASS MOCLDY    19  14  79 NW10G21   29.85R WCI   8
$$

COZ069>075-261100-
...SAN LUIS VALLEY/SANGRE DE CRISTO MOUNTAINS...

CITY           SKY/WX    TMP DP  RH WIND       PRES   REMARKS
ALAMOSA        FAIR      31  26  82 N8        29.82R WCI  23
LA VETA PASS   FAIR      23  21  93 W6        29.93S WCI  16
SAGUACHE       FAIR      32  21  64 N7        29.85R WCI  26
$$

COZ035-036-038>040-261100-
...NORTHERN COLORADO FRONT RANGE...

CITY           SKY/WX    TMP DP  RH WIND       PRES   REMARKS
DENVER INTL AP CLOUDY    30  26  85 CALM      29.83R
DMNS CITY PARK   N/A     31  26  81 E6        29.83S WCI  26
AURORA         CLOUDY    29  27  92 E7        29.83R WCI  22
FRONT RANGE AP CLOUDY    32  30  93 CALM      29.84R
ERIE MUNI ARPT CLOUDY    32  27  81 CALM      29.84R
BOULDER MUN AP CLOUDY    32  28  86 E5        29.83R WCI  27
CENTENNIAL     CLOUDY    29  26  89 E5        29.81F WCI  24
BROOMFIELD     CLOUDY    32  28  86 E6        29.83R WCI  26
FORT COLLINS   FAIR      28  24  85 S5        29.84R WCI  23
LONGMONT       MOCLDY    34  28  77 CALM      29.85S HAZE
$$

COZ041-046-047-076>085-087-088-261100-
...PIKES PEAK/PALMER DIVIDE AND SOUTHERN FOOTHILLS...

CITY           SKY/WX    TMP DP  RH WIND       PRES   REMARKS
COLO. SPRINGS  MOCLDY    33  26  75 CALM      29.80R
A. F. ACADEMY  FAIR      28  26  90 N9        29.78R WCI  19
SCHRIEVER AFB  FAIR      29  25  87 N14       29.80R WCI  18
ELLICOTT       NOT AVBL
FALCON         FAIR      27  26  95 N15       29.80R WCI  15
FORT CARSON    NOT AVBL
LIMON          FAIR      29  27  92 N14       29.79F WCI  18
MONUMENT HILL  CLOUDY    27  25  93 N6        29.82R FOG     WCI  20
TRINIDAD       MOCLDY    34  32  92 W7        29.82S WCI  28
$$

COZ042>045-048>051-090-091-261100-
...NORTHEAST COLORADO...

CITY           SKY/WX    TMP DP  RH WIND       PRES   REMARKS
GREELEY ARPT   FAIR      31  26  82 SW7       29.85R WCI  24
AKRON          MOCLDY    28  25  88 NW10      29.80R WCI  19
BURLINGTON     NOT AVBL
WRAY           NOT AVBL
STERLING       MOCLDY    30  30 100 CALM      29.81S
HOLYOKE        CLOUDY    34  30  86 NW9       29.81S WCI  26
FORT MORGAN    FAIR      28  26  91 W5        29.83R WCI  23
$$

COZ086-089-092>099-261100-
...SOUTHEAST COLORADO...

CITY           SKY/WX    TMP DP  RH WIND       PRES   REMARKS
PUEBLO         CLOUDY    38  30  73 NE6       29.82R
LA JUNTA       FAIR      41  35  79 N12       29.81R
LAMAR          CLOUDY    41  36  82 N9        29.77R
SPRINGFIELD      N/A     39  38  96 N17       29.76R
$$




USA.gov is the U.S. government's official web portal to all federal, state and local government web resources and services.